Hourly Data Report for December 05, 2019

All times are specified in Local Standard Time (LST). Add 1 hour to adjust for Daylight Saving Time where and when it is observed.

SATURNA ISLAND CS
BRITISH COLUMBIA
Current Station Operator: ECCC - MSC

48°47'02.067" N
123°02'41.082" W
24.40 m
1017101
71473
WEZ

Download Data

Hourly Data (December 2019)
Hourly Data Report for December 5, 2019
TIME Temp Definition
°C
Dew Point Definition
°C
Rel Hum Definition
%
Wind Dir Definition
10's deg

Wind Spd Definition
km/h
Visibility Definition
km
Stn Press Definition
kPa
Hmdx Definition


Wind Chill Definition


Weather Definition


00:00 6.9 4.7 86 29 6   101.23     LegendNANA
01:00 6.8 4.7 87 31 8   101.23     LegendNANA
02:00 6.6 4.6 87 32 9   101.26     LegendNANA
03:00 6.6 4.6 87 32 10   101.27     LegendNANA
04:00 6.3 4.3 88 32 9   101.29     LegendNANA
05:00 6.3 4.4 88 30 8   101.30     LegendNANA
06:00 6.2 4.5 89 33 10   101.31     LegendNANA
07:00 6.3 4.8 90 34 8   101.34     LegendNANA
08:00 6.0 5.0 93 35 10   101.38     LegendNANA
09:00 6.1 5.0 92 36 13   101.43     LegendNANA
10:00 6.8 4.7 86 35 7   101.46     LegendNANA
11:00 7.0 4.4 83 31 4   101.50     LegendNANA
12:00 7.0 4.3 83 32 5   101.50     LegendNANA
13:00 7.1 4.4 83 32 4   101.47     LegendNANA
14:00 6.9 4.7 86 34 6   101.45     LegendNANA
15:00 6.7 4.8 88 35 8   101.45     LegendNANA
16:00 6.7 4.9 88 34 7   101.42     LegendNANA
17:00 6.8 4.9 88 35 7   101.42     LegendNANA
18:00 6.6 4.7 88 32 4   101.40     LegendNANA
19:00 6.5 4.8 89 35 9   101.31     LegendNANA
20:00 6.6 3.3 79 4 14   101.33     LegendNANA
21:00 6.6 3.7 82 3 6   101.33     LegendNANA
22:00 6.1 4.4 89 4 6   101.31     LegendNANA
23:00 6.5 4.1 85 36 8   101.29     LegendNANA

Notes on Data Quality.

Legend

  • E = Estimated
  • M = Missing
  • NA = Not Available
Date modified: